Location: Dos Palmas
(32.4468°N, 116.8732°W)
Time: 00:47:05
(UTC+00:00)

Cosmos 1943 - Pass Details

Date: 20 June 2021
Orbit: 832 x 852 km, 71.0° (Epoch: 01 August)

Event Time Altitude Azimuth Distance (km) Brightness Sun altitude
Exits shadow 08:20:58 43° 36° (NE) 1,152 4.1 -33.6°
Drops below altitude 10° 08:24:44 10° 25° (NNE) 2,453 6.4 -33.5°
Sets 08:27:12 0° 23° (NNE) 3,394 7.4 -33.4°
